Location: Huesca
(42.1318°N, 0.4078°W)
Time: 09:52:45
(UTC+02:00)

TIGRISAT - Pass Details

Date: 27 April 2024
Orbit: 594 x 672 km, 97.7° (Epoch: 21 May)

Event Time Altitude Azimuth Distance (km) Brightness Sun altitude
Rises 04:58:54 0° 132° (SE) 2,914 ? -20.4°
Reaches altitude 10° 05:01:30 10° 117° (ESE) 1,996 ? -20.0°
Maximum altitude 05:04:48 22° 67° (ENE) 1,376 ? -19.5°
Drops below altitude 10° 05:08:03 10° 17° (NNE) 1,972 ? -19.1°
Sets 05:10:36 0° 2° (N) 2,870 ? -18.7°
